[[{"header":{"parameterUnit":"m.s-1","parameterCategory":1,"la1":30.2991,"la2":30.254,"lo1":-89.0895,"lo2":-89.0444,"dy":0.0017,"dx":0.0017,"nx":28,"ny":28,"refTime":"2024-08-31T21:00:00:Z","depth":0,"parameterNumber":2,"parameterNumberName":"U-component_of_WINDS"},"data":[0,0,0,0,0,0,0,0,0,0,0,0,0,0,0,0,0,0,0,0,0,0,0,0,0,0,0,0,0,0,0,0,0,0,0,0,0,0,0,0,0,0,0,0,0,0,0,0,0,0,0,0,0,0,0,0,0,0,-2.1814,-2.1816,0,-2.1927,-2.1928,-2.193,-2.1955,-2.1955,-2.1954,-2.1953,-2.2069,-2.2073,-2.2077,0,0,0,0,0,0,0,0,0,0,0,0,0,-2.1624,-2.1628,-2.1814,-2.1816,-2.1817,-2.1927,-2.1929,-2.193,-2.1956,-2.1955,-2.1954,-2.1953,-2.2068,-2.2072,-2.2077,0,0,0,0,0,0,0,0,0,0,0,0,0,-2.1719,-2.1629,-2.1814,-2.1843,-2.1847,-2.1927,-2.1929,-2.193,-2.1956,-2.1955,-2.1953,-2.1952,-2.2066,-2.2072,-2.2078,-2.2137,0,0,-2.2095,-2.2098,0,0,0,0,0,0,0,0,-2.1713,-2.1726,-2.1837,-2.1841,-2.1846,-2.1926,-2.1904,-2.2,-2.1956,-2.1914,-2.1953,-2.1952,-2.2023,-2.2032,-2.2056,-2.2142,-2.2147,-2.2096,-2.2099,-2.2102,-2.2103,0,0,0,0,0,0,0,-2.1707,-2.1721,-2.1859,-2.1839,-2.1844,-2.1852,-2.1864,-2.1922,-2.1974,-2.1918,-2.192,-2.1933,-2.2025,-2.205,-2.2059,-2.2149,-2.2096,-2.2101,-2.2104,-2.2106,-2.2292,-2.2294,0,0,0,0,0,0,-2.1695,-2.1715,-2.1855,-2.1862,-2.1775,-2.1856,-2.187,-2.1901,-2.1973,-2.1983,-2.1934,-2.1934,-2.2041,-2.2052,-2.2063,-2.2137,-2.2102,-2.2107,-2.211,-2.2291,-2.2293,-2.2294,0,0,0,0,0,0,-2.1691,-2.1707,-2.1851,-2.179,-2.1808,-2.186,-2.1896,-2.1904,-2.193,-2.1985,-2.1995,-2.195,-2.204,-2.2055,-2.2119,-2.2142,-2.211,-2.2115,-2.2289,-2.2291,-2.2293,-2.2286,0,0,0,0,0,0,-2.1685,-2.1705,-2.1727,-2.179,-2.1812,-2.1904,-2.1898,-2.1907,-2.1939,-2.194,-2.2003,-2.2012,-2.204,-2.211,-2.2124,-2.2149,-2.2119,-2.2287,-2.229,-2.2293,-2.2284,-2.2288,-2.2291,0,0,0,0,0,-2.1678,-2.1721,-2.1728,-2.1745,-2.184,-2.1905,-2.1918,-2.1949,-2.1941,-2.1964,-2.2001,-2.201,-2.2137,-2.2116,-2.2133,-2.2159,-2.2286,-2.2289,-2.2293,-2.2283,-2.2287,-2.2291,0,0,0,0,0,0,-2.1659,-2.1729,-2.1738,-2.1802,-2.1848,-2.1909,-2.1939,-2.1952,-2.2,-2.1999,-2.2037,-2.2051,-2.2112,-2.2143,-2.2118,-2.2222,-2.2212,-2.2218,-2.2199,-2.2203,-2.2206,-2.2196,-2.2124,0,0,0,0,0,-2.1662,-2.1708,-2.1768,-2.1818,-2.1841,-2.1886,-2.1915,-2.1936,-2.1985,-2.2004,-2.2045,-2.2092,-2.2143,-2.2175,-2.2225,-2.229,-2.2305,-2.2317,-2.232,-2.2322,-2.2327,-2.2365,-2.2372,-2.2305,-2.2305,-2.2305,0,0,-2.1669,-2.1713,-2.174,-2.1816,-2.1853,-2.1901,-2.1902,-2.1952,-2.1988,-2.2012,-2.2074,-2.2106,-2.2162,-2.2227,-2.2258,-2.2254,-2.2349,-2.2327,-2.2328,-2.2332,-2.2369,-2.2376,-2.2381,-2.2308,-2.2307,-2.2307,0,0,-2.1705,-2.1743,-2.179,-2.1828,-2.1885,-2.1916,-2.1927,-2.1988,-2.201,-2.2074,-2.2093,-2.2138,-2.2224,-2.2263,-2.2294,-2.235,-2.2361,-2.2366,-2.2381,-2.2418,-2.2423,-2.2428,-2.2447,-2.2454,-2.2371,-2.2371,-2.2371,0,-2.1706,-2.1778,-2.1812,-2.1862,-2.1895,-2.192,-2.1969,-2.2004,-2.2075,-2.2098,-2.2093,-2.2204,-2.2243,-2.2318,-2.2332,-2.2357,-2.2371,-2.2357,-2.2419,-2.2424,-2.2429,-2.2449,-2.2456,-2.2371,-2.2371,-2.2371,-2.2371,0,-2.1777,-2.1827,-2.1858,-2.1926,-2.1963,-2.2012,-2.2055,-2.2089,-2.2107,-2.2139,-2.2205,-2.2254,-2.2314,-2.2334,-2.2352,-2.2413,-2.2409,-2.2412,-2.2402,-2.2435,-2.2454,-2.2461,-2.2371,-2.2371,-2.2371,-2.2371,0,0,-2.18,-2.1889,-2.1899,-2.1931,-2.1998,-2.2038,-2.2089,-2.2149,-2.2177,-2.2227,-2.2271,-2.2345,-2.2349,-2.2384,-2.2408,-2.2441,-2.2482,-2.244,-2.2442,-2.2445,-2.2553,-2.2549,-2.2557,-2.2491,-2.2493,-2.2494,-2.2548,0,-2.1844,-2.1934,-2.1969,-2.2043,-2.2091,-2.2117,-2.2162,-2.2209,-2.2241,-2.2287,-2.2323,-2.2375,-2.2376,-2.2397,-2.2431,-2.247,-2.2504,-2.2467,-2.2533,-2.2535,-2.2516,-2.2566,-2.2562,-2.261,-2.2555,-2.2556,-2.2557,0,-2.1906,-2.1956,-2.2035,-2.2098,-2.2119,-2.2159,-2.2217,-2.2261,-2.2316,-2.2337,-2.2378,-2.2401,-2.2457,-2.2446,-2.2525,-2.2499,-2.2529,-2.2552,-2.2555,-2.256,-2.2546,-2.2572,-2.2626,-2.2632,-2.2569,-2.2568,-2.2567,0,-2.1914,-2.2002,-2.2061,-2.2088,-2.2162,-2.219,-2.2223,-2.2276,-2.2311,-2.2363,-2.2386,-2.2444,-2.2475,-2.2521,-2.2559,-2.2547,-2.2634,-2.2626,-2.2653,-2.2652,-2.2668,-2.2666,-2.2726,-2.269,-2.269,-2.269,-2.269,0,-2.1957,-2.2005,-2.2066,-2.2101,-2.2156,-2.2197,-2.225,-2.2285,-2.2333,-2.2378,-2.2405,-2.2447,-2.2496,-2.2544,-2.2575,-2.2635,-2.265,-2.2669,-2.2676,-2.2665,-2.2663,-2.2683,-2.268,-2.2692,-2.2692,-2.2691,-2.2691,0,-2.1974,-2.2017,-2.2083,-2.215,-2.2168,-2.2205,-2.2263,-2.23,-2.2335,-2.2391,-2.2407,-2.2461,-2.252,-2.2563,-2.2639,-2.266,-2.2725,-2.2733,-2.2706,-2.2709,-2.2733,-2.273,-2.2807,-2.2819,-2.2777,-2.2777,-2.2777,0,-2.1998,-2.2035,-2.2106,-2.2138,-2.2171,-2.2221,-2.2257,-2.23,-2.2336,-2.2403,-2.2433,-2.2493,-2.2544,-2.2637,-2.2683,-2.2742,-2.2751,-2.2775,-2.276,-2.2749,-2.2751,-2.2747,-2.2751,-2.2775,-2.2776,-2.2776,-2.2776,0,-2.2036,-2.2056,-2.2106,-2.2164,-2.2206,-2.2254,-2.2303,-2.2328,-2.238,-2.242,-2.248,-2.2519,-2.2598,-2.2658,-2.2722,-2.2757,-2.2776,-2.2781,-2.279,-2.2778,-2.2761,-2.277,-2.2709,-2.2778,-2.2778,-2.2778,-2.2778,-2.2778,-2.2057,-2.2091,-2.2147,-2.2203,-2.2244,-2.229,-2.2328,-2.2369,-2.242,-2.2486,-2.2509,-2.2572,-2.2629,-2.2717,-2.2753,-2.2804,-2.2803,-2.2817,-2.282,-2.2822,-2.2821,-2.2755,-2.2816,-2.2816,-2.2816,-2.2816,-2.2816,0,-2.2095,-2.2133,-2.2184,-2.2252,-2.2296,-2.2311,-2.2366,-2.2402,-2.2457,-2.2508,-2.2558,-2.2629,-2.2688,-2.2741,-2.2804,-2.2834,-2.2844,-2.2849,-2.2846,-2.2854,-2.2818,-2.2803,-2.284,-2.284,-2.284,-2.284,-2.284,-2.284,-2.212,-2.218,-2.2207,-2.2289,-2.2327,-2.2388,-2.2419,-2.2462,-2.2503,-2.258,-2.263,-2.2665,-2.2718,-2.2784,-2.284,-2.2855,-2.2876,-2.2878,-2.2894,-2.2859,-2.2856,-2.2853,-2.284,-2.2883,-2.2883,-2.2926,-2.2926,-2.2927]},{"header":{"parameterUnit":"m.s-1","parameterCategory":1,"la1":30.2991,"la2":30.254,"lo1":-89.0895,"lo2":-89.0444,"dy":0.0017,"dx":0.0017,"nx":28,"ny":28,"refTime":"2024-08-31T21:00:00:Z","depth":0,"parameterNumber":3,"parameterNumberName":"V-component_of_WINDS"},"data":[0,0,0,0,0,0,0,0,0,0,0,0,0,0,0,0,0,0,0,0,0,0,0,0,0,0,0,0,0,0,0,0,0,0,0,0,0,0,0,0,0,0,0,0,0,0,0,0,0,0,0,0,0,0,0,0,0,0,2.4844,2.4843,0,2.4796,2.4795,2.4794,2.4755,2.4754,2.4754,2.4753,2.4704,2.4703,2.4703,0,0,0,0,0,0,0,0,0,0,0,0,0,2.4902,2.4901,2.4844,2.4843,2.4843,2.4796,2.4795,2.4794,2.4755,2.4754,2.4754,2.4753,2.4705,2.4704,2.4702,0,0,0,0,0,0,0,0,0,0,0,0,0,2.4868,2.4901,2.4844,2.4817,2.4814,2.4796,2.4795,2.4794,2.4755,2.4754,2.4754,2.4753,2.4705,2.4704,2.4702,2.4706,0,0,2.4698,2.4697,0,0,0,0,0,0,0,0,2.487,2.4866,2.4822,2.4819,2.4816,2.478,2.4797,2.4765,2.4755,2.4778,2.4753,2.4753,2.473,2.4727,2.4719,2.4704,2.4702,2.4698,2.4697,2.4697,2.4696,0,0,0,0,0,0,0,2.4872,2.4867,2.4825,2.4821,2.4818,2.4808,2.4802,2.4791,2.4758,2.4776,2.4773,2.4767,2.4728,2.472,2.4718,2.4701,2.4698,2.4697,2.4696,2.4695,2.4686,2.4686,0,0,0,0,0,0,2.4879,2.487,2.4826,2.4823,2.4842,2.4807,2.4801,2.4793,2.4758,2.4752,2.4768,2.4766,2.4723,2.4719,2.4716,2.4717,2.4697,2.4695,2.4694,2.4685,2.4686,2.4686,0,0,0,0,0,0,2.488,2.4875,2.4828,2.4846,2.4839,2.4807,2.4798,2.4792,2.4784,2.4752,2.4746,2.4766,2.4722,2.4718,2.4709,2.4715,2.4695,2.4693,2.4684,2.4685,2.4686,2.472,0,0,0,0,0,0,2.4882,2.4876,2.4877,2.4846,2.4838,2.4822,2.4798,2.4791,2.4781,2.4778,2.4749,2.4743,2.4722,2.4711,2.4707,2.4712,2.4692,2.4684,2.4685,2.4686,2.4718,2.4722,2.4725,0,0,0,0,0,2.4884,2.4889,2.4877,2.4872,2.4839,2.4823,2.4818,2.4793,2.4782,2.4783,2.4763,2.4744,2.4715,2.471,2.4706,2.4711,2.4683,2.4684,2.4686,2.4717,2.4721,2.4725,0,0,0,0,0,0,2.4922,2.4885,2.4871,2.4866,2.4848,2.4816,2.4816,2.4799,2.4783,2.4781,2.4751,2.4744,2.4738,2.4724,2.4719,2.4712,2.4696,2.4697,2.4722,2.4726,2.4729,2.4732,2.4691,0,0,0,0,0,2.493,2.492,2.4888,2.4886,2.4878,2.4849,2.4841,2.4823,2.4803,2.4795,2.4774,2.4755,2.4741,2.4733,2.4719,2.4716,2.4709,2.4717,2.4721,2.4724,2.4724,2.472,2.4723,2.469,2.469,2.469,0,0,2.4946,2.4924,2.492,2.4893,2.4877,2.4867,2.4842,2.4833,2.4825,2.4793,2.4783,2.4767,2.4744,2.4738,2.4734,2.4725,2.4732,2.4725,2.4728,2.4727,2.4722,2.4725,2.4728,2.4691,2.4691,2.4691,0,0,2.497,2.4953,2.4949,2.4933,2.4908,2.4889,2.4888,2.4859,2.4846,2.4836,2.4811,2.4802,2.4779,2.4763,2.4752,2.4769,2.4751,2.4765,2.4783,2.478,2.4782,2.4784,2.4789,2.4791,2.4766,2.4766,2.4766,0,2.4993,2.4976,2.495,2.4941,2.493,2.4901,2.4896,2.4882,2.4854,2.4847,2.4838,2.4808,2.4791,2.478,2.4784,2.4776,2.4774,2.4768,2.4784,2.4786,2.4788,2.4792,2.4794,2.4768,2.4768,2.4768,2.4768,0,2.5005,2.4994,2.4994,2.4967,2.4956,2.495,2.4922,2.4914,2.4897,2.4878,2.4867,2.4845,2.4825,2.4822,2.4806,2.4808,2.4803,2.479,2.4773,2.4793,2.4796,2.4798,2.4771,2.477,2.4769,2.4769,0,0,2.5051,2.5009,2.5009,2.4996,2.4966,2.4957,2.4949,2.493,2.4923,2.4905,2.4896,2.4878,2.4865,2.4852,2.4834,2.4831,2.4844,2.4818,2.4817,2.4822,2.4844,2.4854,2.4856,2.4833,2.4833,2.4833,2.4846,0,2.5069,2.5053,2.5028,2.502,2.5008,2.498,2.4973,2.4954,2.4937,2.4924,2.4905,2.4892,2.4876,2.4868,2.4864,2.4844,2.4848,2.4843,2.4824,2.4824,2.4829,2.4858,2.4868,2.4881,2.4847,2.4847,2.4847,0,2.5088,2.507,2.506,2.503,2.5024,2.5018,2.4998,2.4987,2.4964,2.4952,2.4937,2.4918,2.4907,2.4893,2.4878,2.4875,2.4866,2.4855,2.4855,2.4851,2.4836,2.4854,2.4885,2.4886,2.4849,2.4849,2.4849,0,2.512,2.5094,2.5084,2.5074,2.5039,2.5036,2.5021,2.4998,2.4987,2.497,2.4962,2.4944,2.4933,2.4919,2.4895,2.4887,2.4882,2.4866,2.4871,2.4871,2.487,2.487,2.4898,2.4867,2.4867,2.4867,2.4867,0,2.5142,2.5136,2.5098,2.5092,2.5085,2.5057,2.5051,2.5034,2.5014,2.5004,2.4979,2.497,2.4939,2.4926,2.4908,2.4897,2.4893,2.4882,2.4877,2.4883,2.4885,2.4876,2.4874,2.4867,2.4867,2.4867,2.4867,0,2.5176,2.5151,2.5138,2.5106,2.5098,2.5094,2.5066,2.5059,2.504,2.5028,2.5023,2.4993,2.4977,2.4952,2.4928,2.4915,2.4908,2.49,2.4915,2.4912,2.4917,2.4916,2.494,2.4941,2.491,2.491,2.4911,0,2.5191,2.5186,2.5153,2.5144,2.513,2.5117,2.5105,2.5077,2.5067,2.504,2.5036,2.5018,2.5002,2.4977,2.4953,2.4935,2.4926,2.4935,2.4923,2.4929,2.4924,2.4924,2.4923,2.4938,2.4938,2.4939,2.4939,0,2.5219,2.5207,2.5191,2.5171,2.5157,2.514,2.5122,2.5116,2.5085,2.5074,2.5056,2.5044,2.5019,2.5001,2.498,2.4965,2.4946,2.4943,2.4943,2.4949,2.4957,2.4951,2.4921,2.4943,2.4942,2.4942,2.4942,2.4942,2.5243,2.5237,2.5212,2.5195,2.5178,2.5162,2.5153,2.5132,2.5117,2.5095,2.508,2.5063,2.504,2.5009,2.4995,2.4981,2.4974,2.4974,2.4973,2.4973,2.4975,2.4961,2.4978,2.4978,2.4977,2.4977,2.4977,0,2.5269,2.5251,2.5236,2.521,2.5197,2.5181,2.516,2.515,2.5135,2.5115,2.5099,2.5079,2.5061,2.5036,2.5016,2.501,2.5001,2.5006,2.5005,2.5002,2.4984,2.4985,2.5013,2.5013,2.5013,2.5013,2.5013,2.5013,2.528,2.5268,2.5253,2.5232,2.5214,2.5197,2.5186,2.5171,2.5154,2.5133,2.5117,2.5101,2.5079,2.5057,2.504,2.5033,2.5026,2.5033,2.5023,2.5007,2.5003,2.5,2.5001,2.5032,2.5032,2.5042,2.5042,2.5042]}]]